Location: Colossi of Memnon
(25.7167°N, 32.6167°E)
Time: 02:09:35
(UTC+00:00)

Cosmos 1190 Rocket - Pass Details

Date: 05 March 2021
Orbit: 757 x 779 km, 74.1° (Epoch: 21 April)

Event Time Altitude Azimuth Distance (km) Brightness Sun altitude
Rises 03:16:13 0° 201° (SSW) 3,242 7.0 -12.7°
Reaches altitude 10° 03:18:37 10° 204° (SSW) 2,319 6.3 -12.1°
Maximum altitude 03:23:50 65° 285° (WNW) 854 4.0 -11.0°
Drops below altitude 10° 03:29:06 10° 8° (N) 2,330 6.6 -9.8°
Sets 03:31:31 0° 11° (N) 3,259 7.4 -9.2°
